Weather History for Corning, AR

Change the Weather History Date:

Tuesday, August 12, 2014

  Actual Average (KARG) Record (KARG)
Temperature  
Mean Temperature 74 °F -  
Max Temperature 84 °F 85 °F 100 °F (1999)
Min Temperature 64 °F 67 °F 53 °F (2012)
Cooling Degree Days 9    
Growing Degree Days 24 (Base 50)    
Moisture  
Dew Point 62 °F    
Average Humidity 68    
Maximum Humidity 94    
Minimum Humidity 40    
Precipitation  
Precipitation 0.02 in - - ()
Sea Level Pressure  
Sea Level Pressure 29.98 in    
Wind  
Wind Speed 8 mph (NNW)    
Max Wind Speed 14 mph    
Max Gust Speed 16 mph    
Visibility 10 miles    
Events Rain    
Averages and records for this station are not official NWS values.
T = Trace of Precipitation, MM = Missing Value Source: NWS Daily Summary

Daily Weather History Graph

Daily Weather History Graph

Search for Another Location

Airport:

Trip Planner

Search our weather history database for the weather conditions in past years. The results will help you decide how hot, cold, wet, or windy it might be!

Date:

Astronomy

Aug. 12, 2014 Rise Set
Actual Time 6:17 AM CDT 7:56 PM CDT
Civil Twilight 5:50 AM CDT 8:24 PM CDT
Nautical Twilight 5:17 AM CDT 8:57 PM CDT
Astronomical Twilight 4:41 AM CDT 9:32 PM CDT
Moon 9:10 PM CDT (8/12) 8:30 AM CDT (8/12)
Length of Visible Light 14h 33m
Length of Day
13h 38m
Waning Gibbous, 94% of the Moon is Illuminated
Aug 12
Waning Gibbous
Aug 17
Last Quarter
Aug 25
New
Sep 2
First Quarter
Sep 8
Full

Hourly Weather History & Observations

Time (CDT) Temp. Heat Index Dew Point Humidity Pressure Visibility Wind Dir Wind Speed Gust Speed Precip Events Conditions
12:35 AM 73.4 °F - 68.0 °F 83% 29.95 in 10.0 mi NNW 8.1 mph - N/A   Clear
12:55 AM 73.4 °F - 68.0 °F 83% 29.95 in 10.0 mi NNW 8.1 mph - N/A   Clear
1:15 AM 73.4 °F - 68.0 °F 83% 29.96 in 10.0 mi NW 9.2 mph - N/A   Clear
1:35 AM 73.4 °F - 66.2 °F 78% 29.96 in 10.0 mi NNW 8.1 mph - N/A   Partly Cloudy
1:55 AM 73.4 °F - 66.2 °F 78% 29.96 in 10.0 mi NW 6.9 mph - N/A   Scattered Clouds
2:15 AM 73.4 °F - 66.2 °F 78% 29.96 in 10.0 mi NW 6.9 mph - N/A   Scattered Clouds
2:35 AM 73.4 °F - 66.2 °F 78% 29.95 in 10.0 mi NW 6.9 mph - N/A   Mostly Cloudy
2:55 AM 71.6 °F - 66.2 °F 83% 29.95 in 10.0 mi NW 4.6 mph - N/A   Scattered Clouds
3:15 AM 71.6 °F - 64.4 °F 78% 29.96 in 10.0 mi NW 5.8 mph - N/A   Scattered Clouds
3:35 AM 71.6 °F - 64.4 °F 78% 29.96 in 10.0 mi NW 6.9 mph - N/A   Mostly Cloudy
3:55 AM 69.8 °F - 64.4 °F 83% 29.96 in 10.0 mi NW 5.8 mph - N/A   Partly Cloudy
4:15 AM 68.0 °F - 64.4 °F 88% 29.96 in 10.0 mi NW 6.9 mph - N/A   Clear
4:35 AM 68.0 °F - 62.6 °F 83% 29.96 in 10.0 mi NW 6.9 mph - N/A   Clear
4:55 AM 68.0 °F - 62.6 °F 83% 29.96 in 10.0 mi NW 8.1 mph - N/A   Partly Cloudy
5:15 AM 66.2 °F - 62.6 °F 88% 29.96 in 10.0 mi NW 8.1 mph - N/A   Partly Cloudy
5:35 AM 66.2 °F - 62.6 °F 88% 29.97 in 10.0 mi NW 6.9 mph - N/A   Clear
5:55 AM 66.2 °F - 62.6 °F 88% 29.97 in 10.0 mi WNW 5.8 mph - N/A   Clear
6:15 AM 64.4 °F - 62.6 °F 94% 29.98 in 10.0 mi NW 5.8 mph - N/A   Clear
6:35 AM 64.4 °F - 60.8 °F 88% 29.98 in 10.0 mi NW 6.9 mph - N/A   Clear
6:55 AM 64.4 °F - 60.8 °F 88% 29.99 in 10.0 mi WNW 5.8 mph - N/A   Clear
7:15 AM 66.2 °F - 62.6 °F 88% 29.99 in 10.0 mi NW 5.8 mph - N/A   Clear
7:35 AM 66.2 °F - 60.8 °F 83% 29.99 in 10.0 mi NW 6.9 mph - N/A   Clear
7:55 AM 68.0 °F - 62.6 °F 83% 30.00 in 10.0 mi NNW 10.4 mph - N/A   Clear
8:15 AM 69.8 °F - 62.6 °F 78% 30.00 in 10.0 mi NNW 11.5 mph - N/A   Clear
8:35 AM 71.6 °F - 62.6 °F 73% 30.00 in 10.0 mi NNW 13.8 mph - N/A   Clear
8:55 AM 71.6 °F - 62.6 °F 73% 30.01 in 10.0 mi NNW 9.2 mph - N/A   Clear
9:15 AM 73.4 °F - 62.6 °F 69% 30.01 in 10.0 mi NNW 10.4 mph - N/A   Clear
9:35 AM 75.2 °F - 62.6 °F 65% 30.00 in 10.0 mi NNW 11.5 mph - N/A   Clear
9:55 AM 75.2 °F - 64.4 °F 69% 30.01 in 10.0 mi North 10.4 mph - N/A   Clear
10:15 AM 75.2 °F - 62.6 °F 65% 30.01 in 10.0 mi NNW 12.7 mph - N/A   Clear
10:35 AM 77.0 °F - 62.6 °F 61% 30.01 in 10.0 mi NNW 10.4 mph - N/A   Clear
10:55 AM 77.0 °F - 62.6 °F 61% 30.01 in 10.0 mi North 9.2 mph - N/A   Clear
12:35 PM 80.6 °F 81.8 °F 62.6 °F 54% 30.01 in 10.0 mi NW 12.7 mph 16.1 mph N/A   Unknown
12:55 PM 80.6 °F 81.5 °F 60.8 °F 51% 30.00 in 10.0 mi NNW 6.9 mph - N/A   Unknown
1:15 PM 82.4 °F 82.9 °F 60.8 °F 48% 30.00 in 10.0 mi North 6.9 mph - N/A   Unknown
1:35 PM 82.4 °F 82.9 °F 60.8 °F 48% 29.99 in 10.0 mi NNW 10.4 mph - N/A   Unknown
1:55 PM 82.4 °F 82.5 °F 59.0 °F 45% 29.99 in 10.0 mi NNW 8.1 mph - N/A Rain Light Rain
2:15 PM 82.4 °F 82.5 °F 59.0 °F 45% 29.99 in 10.0 mi North 10.4 mph - N/A Rain Light Rain
3:35 PM 84.2 °F 83.5 °F 57.2 °F 40% 29.98 in 9.0 mi NNW 9.2 mph - N/A Rain Light Rain
3:55 PM 84.2 °F 83.8 °F 59.0 °F 42% 29.97 in 10.0 mi NNW 8.1 mph - 0.01 in Rain Light Rain
4:15 PM 84.2 °F 83.5 °F 57.2 °F 40% 29.97 in 10.0 mi NNW 8.1 mph - N/A Rain Light Rain
4:35 PM 84.2 °F 83.5 °F 57.2 °F 40% 29.97 in 10.0 mi NNW 6.9 mph - N/A Rain Light Rain
4:55 PM 84.2 °F 83.5 °F 57.2 °F 40% 29.97 in 10.0 mi NNW 6.9 mph - 0.01 in Rain Light Rain
5:15 PM 84.2 °F 83.5 °F 57.2 °F 40% 29.97 in 10.0 mi NNW 6.9 mph - N/A Rain Light Rain
5:35 PM 84.2 °F 83.5 °F 57.2 °F 40% 29.97 in 10.0 mi North 8.1 mph - N/A Rain Light Rain
6:55 PM 82.4 °F 83.4 °F 62.6 °F 51% 29.97 in 10.0 mi North 6.9 mph - N/A Rain Light Rain
7:15 PM 80.6 °F 81.5 °F 60.8 °F 51% 29.97 in 10.0 mi North 6.9 mph - N/A Rain Light Rain
7:35 PM 78.8 °F - 62.6 °F 57% 29.97 in 10.0 mi North 4.6 mph - N/A Rain Light Rain
7:55 PM 77.0 °F - 62.6 °F 61% 29.97 in 10.0 mi North 5.8 mph - N/A   Clear
8:15 PM 75.2 °F - 62.6 °F 65% 29.98 in 10.0 mi NNE 4.6 mph - N/A   Clear
8:35 PM 75.2 °F - 62.6 °F 65% 29.98 in 10.0 mi North 5.8 mph - N/A   Clear
8:55 PM 73.4 °F - 62.6 °F 69% 29.99 in 10.0 mi North 3.5 mph - N/A   Clear
9:15 PM 73.4 °F - 60.8 °F 65% 30.00 in 10.0 mi North 4.6 mph - N/A   Clear
9:55 PM 73.4 °F - 59.0 °F 61% 30.02 in 10.0 mi North - - N/A   Clear
10:15 PM 71.6 °F - 60.8 °F 69% 30.02 in 10.0 mi North - - N/A   Clear
10:35 PM 71.6 °F - 60.8 °F 69% 30.03 in 10.0 mi North - - N/A   Clear
10:55 PM 69.8 °F - 60.8 °F 73% 30.03 in 10.0 mi NE 4.6 mph - N/A   Clear
11:15 PM 68.0 °F - 60.8 °F 78% 30.04 in 10.0 mi NNE 3.5 mph - N/A   Clear
11:55 PM 66.2 °F - 60.8 °F 83% 30.05 in 10.0 mi Calm Calm - N/A   Clear